Superior, WI

6:46 AM CST on February 27, 2017 (GMT -0600)
Bong

Weather History for KSUW - October, 2011

Change the Weather History Date:

Tuesday, October 11, 2011

  Actual Average Record
Temperature  
Mean Temperature 54 °F -  
Max Temperature 69 °F 57 °F 85 °F (2015)
Min Temperature 39 °F 37 °F 19 °F (1957)
Degree Days  
Heating Degree Days 11    
Growing Degree Days 4 (Base 50)    
Moisture  
Dew Point 48 °F    
Average Humidity 85    
Maximum Humidity 100    
Minimum Humidity 60    
Precipitation  
Precipitation 0.00 in - - ()
Sea Level Pressure  
Sea Level Pressure 29.85 in    
Wind  
Wind Speed 2 mph (NE)    
Max Wind Speed 10 mph    
Max Gust Speed -    
Visibility 6 miles    
Events Fog    
Averages and records for this station are not official NWS values.
T = Trace of Precipitation, MM = Missing Value Source: NWS Daily Summary

Daily Weather History Graph

Daily Weather History Graph

Search for Another Location

Airport or City:

Trip Planner

Search our weather history database for the weather conditions in past years. The results will help you decide how hot, cold, wet, or windy it might be!

Date:

Astronomy

Oct. 11, 2011 Rise Set
Actual Time 7:20 AM CDT 6:29 PM CDT
Civil Twilight 6:49 AM CDT 6:59 PM CDT
Nautical Twilight 6:14 AM CDT 7:34 PM CDT
Astronomical Twilight 5:39 AM CDT 8:09 PM CDT
Moon 5:57 PM CDT (10/11) 7:00 AM CDT (10/11)
Length of Visible Light 12h 09m
Length of Day
11h 09m
Full, 100% of the Moon is Illuminated
Oct 11
Full
Oct 11
Full
Oct 19
Last Quarter
Oct 26
New
Nov 2
First Quarter

Hourly Weather History & Observations

Time (CDT) Temp. Dew Point Humidity Pressure Visibility Wind Dir Wind Speed Gust Speed Precip Events Conditions
12:35 AM 50.0 °F 48.2 °F 94% 29.89 in 2.0 mi Calm Calm - N/A   Mostly Cloudy
12:55 AM 48.2 °F 46.4 °F 93% 29.89 in 0.2 mi Calm Calm - N/A Fog Fog
1:15 AM 46.4 °F 44.6 °F 93% 29.89 in 0.2 mi Calm Calm - N/A Fog Fog
1:55 AM 44.6 °F 42.8 °F 93% 29.88 in 0.2 mi Calm Calm - N/A Fog Fog
2:15 AM 42.8 °F 41.0 °F 93% 29.88 in 0.2 mi Calm Calm - N/A Fog Fog
2:35 AM 42.8 °F 42.8 °F 100% 29.88 in 0.2 mi Calm Calm - N/A Fog Fog
3:35 AM 41.0 °F 39.2 °F 93% 29.87 in 0.2 mi Calm Calm - N/A Fog Fog
3:55 AM 39.2 °F 39.2 °F 100% 29.87 in 0.2 mi Calm Calm - N/A Fog Fog
4:15 AM 41.0 °F 39.2 °F 93% 29.87 in 0.2 mi Calm Calm - N/A Fog Fog
4:35 AM 39.2 °F 39.2 °F 100% 29.88 in 0.2 mi Calm Calm - N/A Fog Fog
5:15 AM 39.2 °F 37.4 °F 93% 29.88 in 0.2 mi Calm Calm - N/A Fog Fog
5:35 AM 39.2 °F 37.4 °F 93% 29.88 in 0.2 mi Calm Calm - N/A Fog Fog
5:55 AM 39.2 °F 37.4 °F 93% 29.89 in 0.2 mi Calm Calm - N/A Fog Fog
6:35 AM 39.2 °F 37.4 °F 93% 29.89 in 0.2 mi Calm Calm - N/A Fog Fog
6:55 AM 39.2 °F 37.4 °F 93% 29.89 in 0.2 mi Calm Calm - N/A Fog Fog
7:15 AM 39.2 °F 37.4 °F 93% 29.89 in 0.2 mi Calm Calm - N/A Fog Fog
7:35 AM 39.2 °F 37.4 °F 93% 29.88 in 0.2 mi Calm Calm - N/A Fog Fog
8:15 AM 42.8 °F 41.0 °F 93% 29.88 in 0.2 mi Calm Calm - N/A Fog Fog
8:35 AM 46.4 °F 44.6 °F 93% 29.88 in 0.2 mi Calm Calm - N/A Fog Fog
8:55 AM 50.0 °F 48.2 °F 94% 29.88 in 1.8 mi Calm Calm - N/A   Mostly Cloudy
9:15 AM 53.6 °F 51.8 °F 94% 29.88 in 5.0 mi Calm Calm - N/A   Clear
9:55 AM 57.2 °F 55.4 °F 94% 29.87 in 10.0 mi Calm Calm - N/A   Clear
10:15 AM 57.2 °F 53.6 °F 88% 29.87 in 10.0 mi Calm Calm - N/A   Clear
10:35 AM 59.0 °F 55.4 °F 88% 29.87 in 10.0 mi Calm Calm - N/A   Clear
10:55 AM 60.8 °F 55.4 °F 82% 29.87 in 10.0 mi Calm Calm - N/A   Clear
11:15 AM 62.6 °F 55.4 °F 77% 29.86 in 10.0 mi Calm Calm - N/A   Clear
11:35 AM 64.4 °F 55.4 °F 73% 29.86 in 10.0 mi Calm Calm - N/A   Clear
11:55 AM 66.2 °F 55.4 °F 68% 29.85 in 10.0 mi East 3.5 mph - N/A   Clear
12:15 PM 66.2 °F 55.4 °F 68% 29.85 in 10.0 mi East 4.6 mph - N/A   Clear
12:35 PM 69.8 °F 55.4 °F 60% 29.84 in 10.0 mi ENE 5.8 mph - N/A   Clear
12:55 PM 68.0 °F 55.4 °F 64% 29.83 in 10.0 mi ENE 10.4 mph - N/A   Clear
1:15 PM 66.2 °F 53.6 °F 64% 29.83 in 10.0 mi ENE 9.2 mph - N/A   Clear
1:35 PM 66.2 °F 53.6 °F 64% 29.83 in 10.0 mi ENE 8.1 mph - N/A   Clear
1:55 PM 64.4 °F 53.6 °F 68% 29.82 in 10.0 mi NE 8.1 mph - N/A   Scattered Clouds
2:15 PM 66.2 °F 53.6 °F 64% 29.82 in 10.0 mi ENE 8.1 mph - N/A   Scattered Clouds
2:35 PM 64.4 °F 53.6 °F 68% 29.81 in 10.0 mi ENE 9.2 mph - N/A   Scattered Clouds
2:55 PM 64.4 °F 53.6 °F 68% 29.81 in 10.0 mi ENE 9.2 mph - N/A   Scattered Clouds
3:15 PM 62.6 °F 53.6 °F 72% 29.81 in 10.0 mi ENE 8.1 mph - N/A   Scattered Clouds
3:35 PM 60.8 °F 53.6 °F 77% 29.81 in 10.0 mi ENE 8.1 mph - N/A   Scattered Clouds
3:55 PM 60.8 °F 53.6 °F 77% 29.81 in 10.0 mi NE 8.1 mph - N/A   Scattered Clouds
4:15 PM 60.8 °F 53.6 °F 77% 29.80 in 10.0 mi ENE 6.9 mph - N/A   Mostly Cloudy
4:35 PM 60.8 °F 53.6 °F 77% 29.80 in 10.0 mi NE 8.1 mph - N/A   Scattered Clouds
4:55 PM 59.0 °F 51.8 °F 77% 29.80 in 10.0 mi NE 6.9 mph - N/A   Scattered Clouds
5:55 PM 55.4 °F 51.8 °F 88% 29.80 in 10.0 mi NE 5.8 mph - N/A   Clear
6:15 PM 55.4 °F 51.8 °F 88% 29.80 in 10.0 mi NE 4.6 mph - N/A   Clear
6:35 PM 53.6 °F 51.8 °F 94% 29.81 in 10.0 mi ENE 3.5 mph - N/A   Scattered Clouds
6:55 PM 53.6 °F 50.0 °F 88% 29.81 in 7.0 mi Calm Calm - N/A   Overcast
7:15 PM 51.8 °F 50.0 °F 94% 29.81 in 7.0 mi NNE 3.5 mph - N/A   Scattered Clouds
7:35 PM 51.8 °F 50.0 °F 94% 29.82 in 7.0 mi Calm Calm - N/A   Clear
7:55 PM 51.8 °F 48.2 °F 88% 29.82 in 7.0 mi Calm Calm - N/A   Clear
8:15 PM 51.8 °F 48.2 °F 88% 29.82 in 5.0 mi Calm Calm - N/A   Clear
8:35 PM 51.8 °F 48.2 °F 88% 29.82 in 5.0 mi NNE 3.5 mph - N/A   Clear
8:55 PM 48.2 °F 46.4 °F 93% 29.82 in 4.0 mi NNE 3.5 mph - N/A   Clear
9:15 PM 48.2 °F 46.4 °F 93% 29.82 in 0.8 mi Calm Calm - N/A   Mist
9:35 PM 48.2 °F 46.4 °F 93% 29.82 in 1.8 mi Calm Calm - N/A   Mist
9:55 PM 44.6 °F 42.8 °F 93% 29.82 in 0.2 mi Calm Calm - N/A Fog Fog
10:15 PM 44.6 °F 44.6 °F 100% 29.83 in 0.5 mi Calm Calm - N/A Fog Fog
10:35 PM 46.4 °F 44.6 °F 93% 29.82 in 0.2 mi Calm Calm - N/A Fog Fog
10:55 PM 46.4 °F 44.6 °F 93% 29.82 in 0.2 mi Calm Calm - N/A Fog Fog
11:15 PM 44.6 °F 44.6 °F 100% 29.82 in 0.2 mi Calm Calm - N/A Fog Fog
11:35 PM 44.6 °F 44.6 °F 100% 29.82 in 0.2 mi Calm Calm - N/A Fog Fog
11:55 PM 44.6 °F 44.6 °F 100% 29.81 in 0.8 mi Calm Calm - N/A   Mostly Cloudy